Location: Caltech
(34.1382°N, 118.1253°W)
Time: 08:54:30
(UTC-07:00)

JAS-2 - Visible Passes

Search period start: 25 July 2016 00:00
Search period end: 04 August 2016 00:00
Orbit: 799 x 1322 km, 98.6° (Epoch: 24 July)

Date Brightness Start Highest point End Pass type
(mag) Time Alt. Az. Time Alt. Az. Time Alt. Az.
25 Jul 10.5 01:27:11 10° NNE 01:30:16 37° NNE 01:30:16 37° NNE visible
26 Jul 11.3 00:32:48 10° NE 00:34:26 18° NE 00:34:26 18° NE visible
26 Jul 10.8 02:17:47 10° N 02:20:55 26° NW 02:20:55 26° NW visible
27 Jul 10.6 01:22:06 10° NNE 01:25:05 36° NNE 01:25:05 36° NNE visible
28 Jul 11.4 00:27:50 10° NE 00:29:16 16° NE 00:29:16 16° NE visible
28 Jul 10.7 02:12:36 10° N 02:15:45 28° NW 02:15:45 28° NW visible
29 Jul 10.7 01:17:01 10° NNE 01:19:55 34° NNE 01:19:55 34° NNE visible
29 Jul 11.5 03:05:15 10° NW 03:06:24 11° WNW 03:06:24 11° WNW visible
30 Jul 11.5 00:22:53 10° NE 00:24:06 15° NE 00:24:06 15° NE visible
30 Jul 10.7 02:07:26 10° N 02:10:35 29° NW 02:10:35 29° NW visible
31 Jul 10.8 01:11:57 10° NNE 01:14:46 32° NNE 01:14:46 32° NNE visible
31 Jul 11.5 02:59:36 10° NW 03:01:14 13° NW 03:01:14 13° NW visible
01 Aug 11.6 00:17:56 10° NE 00:18:57 14° NE 00:18:57 14° NE visible
01 Aug 10.7 02:02:16 10° N 02:05:25 31° NNW 02:05:25 31° NNW visible
02 Aug 10.9 01:06:53 10° NNE 01:09:36 30° NNE 01:09:36 30° NNE visible
02 Aug 11.4 02:54:07 10° NNW 02:56:05 14° NW 02:56:05 14° NW visible
03 Aug 11.7 00:13:01 10° NE 00:13:48 13° NE 00:13:48 13° NE visible
03 Aug 10.7 01:57:07 10° N 02:00:16 32° NNW 02:00:16 32° NNW visible
